"Pseudo-MPEC" for CARCJ72

Created 2024 Sep 7 10:22:07 UT using Find_Orb

Click here for an explanation of pseudo-MPECs

 
 Astrometry: 
     CARCJ72*1C2024 09 04.47654701 32 12.959-08 31 21.25   ~94C7 20.27GVNEOCPG96
     CARCJ72 1C2024 09 04.48169201 32 12.368-08 32 37.14   ~94C7 20.09GVNEOCPG96
     CARCJ72 1C2024 09 04.48682201 32 11.821-08 33 52.96   ~94C7 20.57GVNEOCPG96
     CARCJ72 1C2024 09 04.49195601 32 11.332-08 35 07.01   ~94C7 20.33GVNEOCPG96
     CARCJ72 1C2024 09 04.49855801 32 10.540-08 36 44.75   ~94Cb 20.57GVNEOCPG96
     CARCJ72 1C2024 09 04.50021801 32 10.388-08 37 08.76   ~94Cb 20.71GVNEOCPG96
     CARCJ72 1C2024 09 05.04294 01 31 28.54 -10 46 38.3    ~956b 20.7 VXNEOCP033
     CARCJ72 1C2024 09 05.04384 01 31 28.43 -10 46 50.2    ~956b 21.2 VXNEOCP033
     CARCJ72 1C2024 09 05.04473 01 31 28.35 -10 47 02.6    ~956b 21.1 VXNEOCP033
     CARCJ72 !C2024 09 05.21416201 31 12.197-11 25 31.43   ~95I7 20.4 GVNEOCPJ04
     CARCJ72 !C2024 09 05.21845001 31 11.733-11 26 29.73   ~95I7 20.2 GVNEOCPJ04
     CARCJ72 KC2024 09 05.30866601 31 08.44 -11 46 56.9    ~95C7 19.8 GXNEOCP858
     CARCJ72 KC2024 09 05.32427001 31 06.83 -11 50 27.6    ~95C7 20.1 GXNEOCP858
     CARCJ72 !C2024 09 05.37477 01 31 02.28 -12 01 46.2    ~959b 20.5 GVNEOCP673
     CARCJ72 !C2024 09 05.37894 01 31 01.83 -12 02 41.4    ~959b       VNEOCP673
     CARCJ72 KC2024 09 05.44484501 30 54.306-12 17 17.59   ~95B7 20.40GVNEOCPI52
     CARCJ72 KC2024 09 05.44656001 30 54.086-12 17 41.32   ~95B7 20.58GVNEOCPI52
     CARCJ72 KC2024 09 05.44826301 30 53.914-12 18 03.85   ~95B7 21.19GVNEOCPI52

Station data:
(033) Karl Schwarzschild Observatory, Tautenburg  (N50.980139 E11.711240)
   Germany.  Observer B. Stecklum. 1.34-m f/3 Schmidt + CCD.
(673) Table Mountain Observatory, Wrightwood  (N34.381485 W117.682170)
   US/California.  Observers J. Chesley, J. Pittichova. Measurer W. M. Owen
   Jr. 0.61-m f/16 reflector + CCD.
(858) Tebbutt Observatory, Edgewood  (N35.093869 W106.220000)  US/New Mexico.
    Observer F. B. Zoltowski. 0.16-m refractor + CCD0.51-m Schmidt-Cassegrain
   + CCD.
(G96) Mt. Lemmon Survey  (N32.442729 W110.788720)  US/Arizona.  Observer E.
   J. Christensen. 1.5-m reflector + 10K CCD.
(I52) Steward Observatory, Mt. Lemmon Station  (N32.442570 W110.788920)
   US/Arizona.  Observers T. A. Pruyne, B. M. Africano, E. J. Christensen, G.
   A. Farneth, D. C. Fuls, A. R. Gibbs, A. D. Grauer, H. Gröller, J. A.
   Johnson, R. A. Kowalski, S. M. Larson, G. J. Leonard, D. Rankin, R. L.
   Seaman, F. C. Shelly, K. W. Wierzchoś. 1.0-m prime focus + CCD.
(J04) ESA Optical Ground Station, Tenerife  (N28.300921 W16.511830)  Canary
   Islands (Spain).  Observer R. Kresken. Measurers M. Micheli, D. Koschny,
   E. Schwab, M. Busch, A. Knöfel. 1.0-m f/4.4 reflector + CCD.

Orbital elements:  CARCJ72
   Perihelion 2024 Jul 13.58667 +/- 0.203 TT = 14:04:48 (JD 2460505.08667)
Epoch 2024 Sep  5.0 TT = JDT 2460558.5   Earth MOID: 0.0555   Ma: 0.0023
M  24.48193837 +/- 0.40             (J2000 ecliptic)             AutoNEOCP
n   0.45834888 +/- 0.00587          Peri.  120.17463 +/- 0.16
a   1.66598823 +/- 0.0142           Node   162.21969 +/- 0.022
e   0.4543655 +/- 0.00466           Incl.   28.24399 +/- 0.16
P   2.150/785.413d         H 23.75  G  0.15   U  9.3
q 0.90902057 +/- 1.98e-5    Q 2.42295589 +/- 0.0285
From 18 observations 2024 Sept. 4-5 (23.3 hr); mean residual 0".35
Residuals in arcseconds: 
240904 G96  .25+  .04-    240905 033  .13+  .53-    240905 858  .02+  .33+    
240904 G96  .24-  .23-    240905 033  .14-  .06+    240905 673  .02-  .77-    
240904 G96  .13-  .63-    240905 033  .02+  .01+    240905 673  .14-  .08-    
240904 G96  .81+  .75+    240905 J04  .15-  .26+    240905 I52  .51+  .69+    
240904 G96  .44-  .06-    240905 J04  .20-  .20+    240905 I52  .02-  .30-    
240904 G96  .06-  .28+    240905 858  .16-  .31+    240905 I52  .14+  .26-    

Ephemerides (geocentric):
Date (UTC) HH   RA             Dec           delta  r     elong  mag " sig PA
---- --------  ------------   ------------  ------ ------ -----  --- --------
2024 09 07 10  01 28 17.435   -18 48 06.48  .13376 1.1170 142.7 21.0 1.02  46
2024 09 07 11  01 28 14.155   -18 55 28.81  .13407 1.1173 142.7 21.0 1.06  46
2024 09 07 12  01 28 10.876   -19 02 49.06  .13438 1.1176 142.7 21.0 1.09  45
2024 09 07 13  01 28 07.600   -19 10 07.22  .13469 1.1178 142.7 21.0 1.13  45
2024 09 07 14  01 28 04.325   -19 17 23.32  .13501 1.1181 142.7 21.0 1.16  44
2024 09 07 15  01 28 01.052   -19 24 37.35  .13532 1.1183 142.7 21.0 1.20  44
2024 09 07 16  01 27 57.781   -19 31 49.33  .13563 1.1186 142.8 21.0 1.23  43
2024 09 07 17  01 27 54.512   -19 38 59.27  .13595 1.1189 142.8 21.0 1.27  43
2024 09 07 18  01 27 51.245   -19 46 07.18  .13626 1.1191 142.8 21.1 1.30  43
2024 09 07 19  01 27 47.980   -19 53 13.07  .13658 1.1194 142.8 21.1 1.34  42
2024 09 07 20  01 27 44.716   -20 00 16.94  .13690 1.1196 142.8 21.1 1.38  42
2024 09 07 21  01 27 41.454   -20 07 18.82  .13721 1.1199 142.8 21.1 1.41  41
2024 09 07 22  01 27 38.195   -20 14 18.69  .13753 1.1201 142.8 21.1 1.45  41
2024 09 07 23  01 27 34.937   -20 21 16.58  .13785 1.1204 142.8 21.1 1.49  41
2024 09 08 00  01 27 31.680   -20 28 12.50  .13817 1.1207 142.8 21.1 1.52  40
2024 09 08 01  01 27 28.426   -20 35 06.45  .13849 1.1209 142.8 21.1 1.56  40
2024 09 08 02  01 27 25.173   -20 41 58.44  .13881 1.1212 142.8 21.1 1.60  40
2024 09 08 03  01 27 21.922   -20 48 48.48  .13913 1.1215 142.8 21.1 1.64  40
2024 09 08 04  01 27 18.673   -20 55 36.59  .13946 1.1217 142.8 21.1 1.68  39
2024 09 08 05  01 27 15.426   -21 02 22.77  .13978 1.1220 142.8 21.1 1.71  39
2024 09 08 06  01 27 12.181   -21 09 07.03  .14010 1.1222 142.8 21.1 1.75  39
2024 09 08 07  01 27 08.937   -21 15 49.38  .14042 1.1225 142.8 21.1 1.79  39
2024 09 08 08  01 27 05.695   -21 22 29.82  .14075 1.1228 142.8 21.1 1.83  38
2024 09 08 09  01 27 02.454   -21 29 08.38  .14107 1.1230 142.8 21.1 1.87  38
2024 09 08 10  01 26 59.216   -21 35 45.05  .14140 1.1233 142.8 21.1 1.91  38
2024 09 08 11  01 26 55.979   -21 42 19.85  .14173 1.1235 142.8 21.1 1.95  38
2024 09 08 12  01 26 52.744   -21 48 52.78  .14205 1.1238 142.8 21.1 1.99  38
2024 09 08 13  01 26 49.510   -21 55 23.86  .14238 1.1241 142.8 21.2 2.03  38
2024 09 08 14  01 26 46.278   -22 01 53.09  .14271 1.1243 142.8 21.2 2.07  37
2024 09 08 15  01 26 43.048   -22 08 20.48  .14304 1.1246 142.8 21.2 2.11  37
2024 09 08 16  01 26 39.820   -22 14 46.05  .14337 1.1248 142.8 21.2 2.15  37
2024 09 08 17  01 26 36.593   -22 21 09.80  .14370 1.1251 142.8 21.2 2.19  37
2024 09 08 18  01 26 33.368   -22 27 31.73  .14403 1.1254 142.8 21.2 2.23  37
2024 09 08 19  01 26 30.145   -22 33 51.87  .14436 1.1256 142.8 21.2 2.27  37
2024 09 08 20  01 26 26.923   -22 40 10.21  .14469 1.1259 142.7 21.2 2.31  36
2024 09 08 21  01 26 23.703   -22 46 26.76  .14502 1.1261 142.7 21.2 2.35  36
2024 09 08 22  01 26 20.485   -22 52 41.55  .14535 1.1264 142.7 21.2 2.39  36
2024 09 08 23  01 26 17.268   -22 58 54.56  .14568 1.1267 142.7 21.2 2.43  36
2024 09 09 00  01 26 14.053   -23 05 05.82  .14602 1.1269 142.7 21.2 2.47  36
2024 09 09 01  01 26 10.839   -23 11 15.33  .14635 1.1272 142.7 21.2 2.52  36
2024 09 09 02  01 26 07.627   -23 17 23.11  .14669 1.1275 142.7 21.2 2.56  36
2024 09 09 03  01 26 04.417   -23 23 29.15  .14702 1.1277 142.7 21.2 2.60  36
2024 09 09 04  01 26 01.208   -23 29 33.46  .14736 1.1280 142.7 21.2 2.64  36
2024 09 09 05  01 25 58.001   -23 35 36.07  .14769 1.1282 142.7 21.2 2.68  35
2024 09 09 06  01 25 54.796   -23 41 36.97  .14803 1.1285 142.7 21.2 2.72  35
2024 09 09 07  01 25 51.592   -23 47 36.17  .14837 1.1288 142.7 21.3 2.76  35
2024 09 09 08  01 25 48.389   -23 53 33.68  .14871 1.1290 142.7 21.3 2.81  35
2024 09 09 09  01 25 45.189   -23 59 29.51  .14904 1.1293 142.7 21.3 2.85  35